[[{"header":{"parameterUnit":"m.s-1","parameterCategory":1,"la1":30.2991,"la2":30.254,"lo1":-89.0895,"lo2":-89.0444,"dy":0.0017,"dx":0.0017,"nx":28,"ny":28,"refTime":"2024-04-10T09:00:00:Z","depth":0,"parameterNumber":2,"parameterNumberName":"U-component_of_WINDS"},"data":[0,0,0,0,0,0,0,0,0,0,0,0,0,0,0,0,0,0,0,0,0,0,0,0,0,0,0,0,0,0,0,0,0,0,0,0,0,0,0,0,0,0,0,0,0,0,0,0,0,0,0,0,0,0,0,0,0,0,-0.9828,-0.983,0,-0.9989,-0.9991,-0.9993,-1.0105,-1.0106,-1.0107,-1.0107,-1.0274,-1.0278,-1.0282,0,0,0,0,0,0,0,0,0,0,0,0,0,-0.9619,-0.9622,-0.9828,-0.983,-0.9832,-0.9989,-0.9991,-0.9993,-1.0105,-1.0106,-1.0107,-1.0108,-1.0273,-1.0278,-1.0282,0,0,0,0,0,0,0,0,0,0,0,0,0,-0.9738,-0.9623,-0.9827,-0.9906,-0.9915,-0.9989,-0.9991,-0.9994,-1.0104,-1.0106,-1.0107,-1.0108,-1.0272,-1.0277,-1.0283,-1.0291,0,0,-1.0299,-1.0302,0,0,0,0,0,0,0,0,-0.9731,-0.9745,-0.9893,-0.9901,-0.9911,-1.0028,-0.9979,-1.0094,-1.0104,-1.0033,-1.0107,-1.0109,-1.0192,-1.0204,-1.0231,-1.0299,-1.0306,-1.03,-1.0303,-1.0305,-1.0307,0,0,0,0,0,0,0,-0.9722,-0.9739,-0.9892,-0.9895,-0.9906,-0.9935,-0.9953,-1.0001,-1.0103,-1.0039,-1.0047,-1.0065,-1.0197,-1.0226,-1.0236,-1.0309,-1.03,-1.0305,-1.0308,-1.031,-1.0393,-1.0392,0,0,0,0,0,0,-0.9702,-0.9731,-0.9887,-0.9897,-0.9822,-0.9937,-0.9958,-0.9989,-1.0103,-1.0121,-1.0064,-1.0069,-1.0216,-1.023,-1.0242,-1.0261,-1.0305,-1.0311,-1.0314,-1.0394,-1.0393,-1.0391,0,0,0,0,0,0,-0.9697,-0.9714,-0.988,-0.9816,-0.984,-0.9939,-0.9974,-0.9992,-1.0021,-1.0122,-1.014,-1.0074,-1.0217,-1.0235,-1.0278,-1.0268,-1.0313,-1.0318,-1.0395,-1.0394,-1.0392,-1.0296,0,0,0,0,0,0,-0.969,-0.9712,-0.9715,-0.9816,-0.9843,-0.9912,-0.9973,-0.9994,-1.003,-1.0039,-1.0136,-1.0154,-1.022,-1.027,-1.0284,-1.0276,-1.0322,-1.0397,-1.0394,-1.0393,-1.03,-1.0291,-1.0283,0,0,0,0,0,-0.9682,-0.9682,-0.9715,-0.9733,-0.9849,-0.9911,-0.9927,-1.0002,-1.0028,-1.0033,-1.0098,-1.0151,-1.0267,-1.0273,-1.029,-1.0284,-1.0398,-1.0395,-1.0393,-1.0304,-1.0293,-1.0283,0,0,0,0,0,0,-0.9578,-0.9697,-0.9734,-0.9766,-0.9828,-0.993,-0.9938,-0.9987,-1.0043,-1.0049,-1.0141,-1.0162,-1.0196,-1.0245,-1.025,-1.0299,-1.0339,-1.0339,-1.0266,-1.0256,-1.0247,-1.0235,-1.0327,0,0,0,0,0,-0.9559,-0.9599,-0.9701,-0.9719,-0.9748,-0.9837,-0.9868,-0.992,-0.9988,-1.0015,-1.0083,-1.0147,-1.0198,-1.023,-1.0283,-1.0308,-1.0332,-1.0313,-1.0304,-1.0297,-1.0296,-1.0314,-1.0307,-1.0383,-1.0383,-1.0383,0,0,-0.952,-0.9589,-0.9609,-0.97,-0.9754,-0.9794,-0.9859,-0.9898,-0.9929,-1.0021,-1.0066,-1.0118,-1.0196,-1.0231,-1.025,-1.0273,-1.028,-1.0293,-1.0287,-1.029,-1.0311,-1.0303,-1.0297,-1.0382,-1.0382,-1.0382,0,0,-0.9469,-0.9525,-0.9547,-0.96,-0.968,-0.974,-0.9745,-0.984,-0.9878,-0.9925,-0.9995,-1.0034,-1.012,-1.0173,-1.021,-1.018,-1.0231,-1.0195,-1.015,-1.0167,-1.0161,-1.0156,-1.0145,-1.014,-1.0194,-1.0194,-1.0194,0,-0.941,-0.9472,-0.9552,-0.9588,-0.9626,-0.9711,-0.9734,-0.9782,-0.9875,-0.99,-0.9924,-1.0034,-1.0093,-1.0142,-1.0134,-1.0162,-1.0172,-1.0184,-1.0155,-1.0151,-1.0147,-1.0138,-1.0134,-1.0189,-1.019,-1.019,-1.0191,0,-0.9396,-0.9438,-0.9447,-0.9534,-0.9574,-0.9603,-0.9688,-0.9719,-0.9768,-0.9826,-0.9873,-0.9946,-1.0015,-1.0031,-1.008,-1.0087,-1.0099,-1.0137,-1.0179,-1.0134,-1.0127,-1.0124,-1.0182,-1.0184,-1.0186,-1.0187,0,0,-0.9283,-0.9415,-0.9417,-0.9458,-0.9554,-0.9588,-0.9622,-0.9689,-0.9714,-0.9776,-0.9807,-0.9878,-0.9915,-0.9958,-1.0014,-1.0028,-1.0,-1.0066,-1.0069,-1.0051,-1.0014,-0.9983,-0.9978,-1.0035,-1.0035,-1.0034,-1.0007,0,-0.9247,-0.931,-0.9384,-0.9422,-0.9463,-0.9544,-0.9574,-0.9636,-0.9691,-0.9734,-0.9796,-0.9845,-0.989,-0.9916,-0.9934,-1.0,-0.9994,-1.0003,-1.0065,-1.0066,-1.0042,-0.9974,-0.9943,-0.9913,-1.0005,-1.0005,-1.0004,0,-0.9212,-0.927,-0.9312,-0.9404,-0.9424,-0.9449,-0.9517,-0.9557,-0.963,-0.9669,-0.9717,-0.9777,-0.9818,-0.9855,-0.9913,-0.9917,-0.9948,-0.9984,-0.9985,-0.9993,-1.0032,-0.9981,-0.9906,-0.9901,-1.0001,-1.0001,-1.0001,0,-0.9125,-0.9214,-0.9251,-0.9283,-0.9392,-0.9408,-0.9454,-0.9528,-0.9564,-0.9624,-0.9649,-0.9712,-0.9747,-0.9796,-0.9872,-0.9892,-0.9922,-0.9965,-0.9956,-0.9954,-0.9958,-0.9957,-0.9886,-0.9978,-0.9978,-0.9978,-0.9978,0,-0.9077,-0.9099,-0.9213,-0.9236,-0.9264,-0.9349,-0.9375,-0.9429,-0.9494,-0.953,-0.9605,-0.9636,-0.9735,-0.9779,-0.9838,-0.9878,-0.9893,-0.9926,-0.9942,-0.9919,-0.9915,-0.994,-0.9944,-0.9977,-0.9977,-0.9977,-0.9977,0,-0.8984,-0.9061,-0.9107,-0.9206,-0.9232,-0.9248,-0.9334,-0.936,-0.9419,-0.9463,-0.9478,-0.9572,-0.9628,-0.9708,-0.9788,-0.9829,-0.9859,-0.9884,-0.9834,-0.9843,-0.9829,-0.9829,-0.9772,-0.9769,-0.9861,-0.986,-0.986,0,-0.8948,-0.8967,-0.9068,-0.9097,-0.914,-0.9186,-0.9223,-0.9308,-0.9343,-0.9428,-0.9444,-0.9505,-0.9558,-0.9644,-0.9719,-0.9782,-0.9809,-0.9785,-0.9819,-0.9796,-0.9809,-0.9806,-0.9809,-0.9776,-0.9775,-0.9773,-0.9773,0,-0.8875,-0.8912,-0.8962,-0.9025,-0.9067,-0.9121,-0.9179,-0.9199,-0.9296,-0.9333,-0.939,-0.9431,-0.9513,-0.9573,-0.9646,-0.9695,-0.975,-0.9761,-0.9763,-0.974,-0.9709,-0.9726,-0.9811,-0.9762,-0.9763,-0.9764,-0.9764,-0.9765,-0.881,-0.8831,-0.8905,-0.8959,-0.9011,-0.9063,-0.9092,-0.9156,-0.9204,-0.9277,-0.9325,-0.938,-0.9454,-0.9557,-0.9603,-0.9648,-0.9671,-0.9673,-0.9673,-0.9672,-0.9664,-0.9702,-0.9662,-0.9662,-0.9663,-0.9663,-0.9663,0,-0.8741,-0.8793,-0.8841,-0.8919,-0.8961,-0.9009,-0.9076,-0.9108,-0.9155,-0.9219,-0.927,-0.9336,-0.9395,-0.9476,-0.9541,-0.9562,-0.9589,-0.9576,-0.9575,-0.9586,-0.964,-0.9632,-0.9553,-0.9553,-0.9553,-0.9553,-0.9553,-0.9553,-0.871,-0.8748,-0.8794,-0.886,-0.8912,-0.8966,-0.9,-0.9049,-0.9101,-0.9171,-0.922,-0.9272,-0.9343,-0.9414,-0.9471,-0.9493,-0.9514,-0.9493,-0.9523,-0.9572,-0.9582,-0.9591,-0.9585,-0.9497,-0.9497,-0.9465,-0.9465,-0.9465]},{"header":{"parameterUnit":"m.s-1","parameterCategory":1,"la1":30.2991,"la2":30.254,"lo1":-89.0895,"lo2":-89.0444,"dy":0.0017,"dx":0.0017,"nx":28,"ny":28,"refTime":"2024-04-10T09:00:00:Z","depth":0,"parameterNumber":3,"parameterNumberName":"V-component_of_WINDS"},"data":[0,0,0,0,0,0,0,0,0,0,0,0,0,0,0,0,0,0,0,0,0,0,0,0,0,0,0,0,0,0,0,0,0,0,0,0,0,0,0,0,0,0,0,0,0,0,0,0,0,0,0,0,0,0,0,0,0,0,9.859,9.8593,0,9.8856,9.8859,9.8862,9.8875,9.8872,9.8869,9.8866,9.9137,9.9146,9.9156,0,0,0,0,0,0,0,0,0,0,0,0,0,9.8093,9.8102,9.8589,9.8593,9.8596,9.8855,9.8859,9.8862,9.8875,9.8871,9.8868,9.8864,9.9133,9.9145,9.9157,0,0,0,0,0,0,0,0,0,0,0,0,0,9.8329,9.8105,9.8589,9.8634,9.8641,9.8854,9.8859,9.8863,9.8876,9.8871,9.8867,9.8862,9.9129,9.9144,9.9159,9.9346,0,0,9.9205,9.9212,0,0,0,0,0,0,0,0,9.8316,9.8347,9.8624,9.8631,9.8639,9.8827,9.8783,9.9025,9.8877,9.8787,9.8866,9.886,9.9037,9.906,9.912,9.9358,9.937,9.9207,9.9216,9.9222,9.9227,0,0,0,0,0,0,0,9.8299,9.8336,9.8695,9.8628,9.8637,9.8641,9.8669,9.8829,9.8935,9.8794,9.8796,9.8827,9.9041,9.9105,9.9126,9.9374,9.9206,9.922,9.9229,9.9235,9.9782,9.9787,0,0,0,0,0,0,9.8274,9.8322,9.8686,9.8703,9.8463,9.8654,9.8685,9.8772,9.8933,9.8953,9.8831,9.8827,9.9082,9.9109,9.9136,9.9367,9.9222,9.9236,9.9245,9.9777,9.9783,9.9789,0,0,0,0,0,0,9.8264,9.8307,9.8676,9.8513,9.856,9.8667,9.8764,9.8779,9.8844,9.8961,9.898,9.8877,9.9079,9.9114,9.9294,9.9376,9.9243,9.9257,9.977,9.9779,9.9786,9.9829,0,0,0,0,0,0,9.8249,9.8303,9.8374,9.8515,9.8569,9.8829,9.8769,9.8788,9.887,9.8867,9.901,9.9029,9.9078,9.9271,9.9309,9.9395,9.9269,9.9763,9.9774,9.9784,9.9821,9.9838,9.9852,0,0,0,0,0,9.8231,9.8375,9.8378,9.8422,9.8661,9.8834,9.8865,9.8919,9.8877,9.895,9.9026,9.9024,9.9361,9.929,9.9332,9.9424,9.9759,9.9771,9.9783,9.9814,9.9834,9.9852,0,0,0,0,0,0,9.824,9.8394,9.8399,9.8592,9.87,9.8836,9.8929,9.8939,9.9061,9.9053,9.9115,9.9147,9.9326,9.9393,9.931,9.9615,9.9555,9.9577,9.9564,9.9585,9.96,9.958,9.9281,0,0,0,0,0,9.8264,9.8392,9.852,9.8678,9.8732,9.8822,9.8899,9.8932,9.9046,9.9091,9.918,9.9291,9.9422,9.9507,9.9634,9.9831,9.9863,9.9915,9.9931,9.9943,9.9961,10.0072,10.0097,9.983,9.9829,9.9829,0,0,9.8316,9.8416,9.8492,9.8682,9.877,9.8901,9.886,9.9,9.9098,9.9113,9.9288,9.9358,9.9485,9.9675,9.9763,9.9736,10.0042,9.9959,9.9968,9.9979,10.0087,10.0113,10.0135,9.9838,9.9836,9.9835,0,0,9.8477,9.8565,9.8707,9.8797,9.8931,9.899,9.9024,9.916,9.9207,9.9384,9.9399,9.9517,9.9741,9.9832,9.9908,10.0108,10.0112,10.0147,10.0229,10.0337,10.0358,10.0377,10.045,10.0475,10.0165,10.0165,10.0165,0,9.8524,9.8723,9.8779,9.8921,9.9004,9.9025,9.917,9.9254,9.9422,9.948,9.9448,9.9732,9.9819,10.0032,10.0081,10.0141,10.0183,10.0131,10.0351,10.037,10.0389,10.0459,10.0486,10.0168,10.0168,10.0168,10.0167,0,9.8774,9.8912,9.9011,9.9175,9.927,9.9412,9.9491,9.9581,9.9606,9.9669,9.9851,9.9957,10.0107,10.016,10.0186,10.0378,10.0357,10.0338,10.0279,10.0417,10.0484,10.0511,10.0173,10.0172,10.0171,10.017,0,0,9.8946,9.9142,9.9177,9.9253,9.9403,9.9511,9.9656,9.9804,9.988,9.9996,10.0119,10.031,10.0294,10.038,10.0416,10.0511,10.0665,10.048,10.0484,10.0512,10.0885,10.0899,10.0929,10.0669,10.0674,10.0678,10.0875,0,9.9124,9.9382,9.9439,9.9661,9.979,9.9813,9.9939,10.0046,10.0109,10.0229,10.0299,10.0434,10.0401,10.0453,10.0548,10.0626,10.0741,10.0612,10.0785,10.079,10.0752,10.0964,10.0979,10.1159,10.0901,10.0906,10.0909,0,9.9366,9.949,9.9725,9.9862,9.9918,10.003,10.0172,10.0285,10.0408,10.0447,10.0545,10.0573,10.0725,10.066,10.0871,10.0783,10.0857,10.0906,10.0915,10.0933,10.0858,10.0988,10.1218,10.1245,10.095,10.0947,10.0944,0,9.9469,9.9694,9.9865,9.9929,10.0092,10.0171,10.0242,10.036,10.0446,10.057,10.0627,10.0767,10.0844,10.0952,10.1017,10.0963,10.1224,10.1163,10.1262,10.1261,10.1315,10.1311,10.156,10.1363,10.1362,10.1362,10.1361,0,9.9662,9.9805,9.9914,10.0019,10.0181,10.0245,10.0404,10.0476,10.0581,10.0701,10.0729,10.0841,10.092,10.1044,10.1095,10.1264,10.1298,10.1335,10.1347,10.1333,10.1328,10.1382,10.1371,10.1369,10.1367,10.1366,10.1365,0,9.9804,9.9882,10.007,10.021,10.0249,10.0362,10.0482,10.0586,10.0651,10.0803,10.0842,10.0944,10.1091,10.1167,10.135,10.1385,10.1575,10.158,10.1534,10.1539,10.1634,10.1624,10.1927,10.197,10.1743,10.1745,10.1747,0,9.9922,10.0033,10.0186,10.0269,10.0343,10.0476,10.0565,10.0633,10.0725,10.0874,10.096,10.1109,10.1232,10.1466,10.1557,10.1698,10.1707,10.1803,10.1728,10.1711,10.171,10.1702,10.1715,10.1816,10.1818,10.182,10.1821,0,10.0124,10.0158,10.0285,10.0427,10.0533,10.0648,10.0761,10.0828,10.0915,10.1017,10.1168,10.1264,10.1452,10.1601,10.1749,10.1823,10.1838,10.1845,10.1875,10.1862,10.1831,10.185,10.1571,10.1837,10.1835,10.1834,10.1833,10.1833,10.0258,10.0359,10.0483,10.0625,10.0718,10.0824,10.0929,10.1009,10.1136,10.1296,10.1329,10.149,10.1612,10.1813,10.1892,10.202,10.2,10.2043,10.2054,10.2064,10.2069,10.1811,10.2047,10.2047,10.2046,10.2046,10.2046,0,10.0462,10.0544,10.0674,10.0833,10.0945,10.095,10.1077,10.117,10.1312,10.1425,10.1546,10.1722,10.1866,10.197,10.2117,10.22,10.221,10.2236,10.2231,10.2248,10.2078,10.2038,10.2225,10.2225,10.2225,10.2225,10.2225,10.2225,10.0582,10.0754,10.0803,10.1022,10.1103,10.1261,10.1334,10.1432,10.1523,10.1718,10.1839,10.1906,10.2017,10.2173,10.2307,10.2333,10.2387,10.2413,10.244,10.2279,10.226,10.2242,10.2204,10.2424,10.2424,10.26,10.2601,10.2603]}]]